Content
SEND FEEDBACK

Daily
Averages
Monthly
Summary
United States of America

CRESCENT CITY, CALIFORNIA


Home > North America > United States > California
Elevation: 56 feet     Latitude: 41 46N     Longitude: 124 14W

WEATHER
 
SELECT A DAY
Number of Records: 269,074;   Date Range: 1/1/95 - 7/7/14
 
SHARE

PRINT THIS DATA

[ ← Previous Day ]
WEATHER ALMANAC - JANUARY 10, 2013
[ Next Day → ]
[ °C ]   °F
Weather ElementAverageHighLow
Temperature39.8 °F44.6 °F (12:12 pm)35.6 °F (2:47 am)
Dewpoint36.6 °F39.9 °F (9:56 am)35.1 °F (2:56 am)
Humidity88.7 %100 % (2:47 am)76 % (12:12 pm)
Barometer30.19 in30.26 in (10:56 pm)30.09 in (12:54 am)
Wind Speed3.3 mph10.4 mph (4:46 pm)
Wind Gust21.9 mph (4:56 pm)
Weather ElementAverage
Visibility9.2 mi
Wind DirectionENE (70.9 °)

Weather ElementTotal
Precipitation0.68 in
Heating Degree Days24.9 (Base 65)
Averaged from 44 records on January 10, 2013
WEATHER CONDITIONS BREAKOUT
WIND DIRECTION BREAKOUT
WEATHER BY HOUR - JANUARY 10, 2013
[ °C ]   °F
Local TimeTemperatureDewpointHumidityBarometerVisibilityWind DirectionWind SpeedGust SpeedPrecipitationEventsConditions
12:54 AM37.4 °F35.6 °F93 %30.09 in10.0 miEast (90°)4.6 mph0.06 inRainLight Rain
12:56 AM37.9 °F36.0 °F93 %30.09 in10.0 miEast (80°)5.8 mph0.06 inRainLight Rain
1:03 AM37.4 °F35.6 °F93 %30.09 in10.0 miENE (70°)5.8 mph0.00 inRainLight Rain
1:14 AM37.4 °F35.6 °F93 %30.10 in10.0 miEast (90°)8.1 mph0.00 inMostly Cloudy
1:56 AM37.0 °F36.0 °F96 %30.11 in10.0 miEast (100°)4.6 mph0.00 inOvercast
2:22 AM37.4 °F35.6 °F93 %30.12 in6.0 miENE (70°)5.8 mph0.04 inRainRain
2:47 AM35.6 °F35.6 °F100 %30.12 in10.0 miESE (120°)4.6 mph0.04 inMostly Cloudy
2:56 AM36.0 °F35.1 °F97 %30.13 in10.0 miEast (90°)3.5 mph0.04 inScattered Clouds
3:56 AM37.0 °F35.1 °F93 %30.13 in10.0 miEast (100°)4.6 mph0.01 inOvercast
4:49 AM37.4 °F35.6 °F93 %30.13 in9.0 miESE (110°)3.5 mph0.02 inRainRain
4:56 AM37.0 °F36.0 °F96 %30.13 in9.0 miVariable3.5 mph0.02 inRainLight Rain
5:33 AM37.4 °F35.6 °F93 %30.14 in10.0 miEast (80°)3.5 mph0.01 inRainLight Rain
5:56 AM37.0 °F35.1 °F93 %30.15 in10.0 miCalm0.01 inRainLight Rain
6:56 AM37.0 °F36.0 °F96 %30.18 in9.0 miNNE (20°)4.6 mph0.01 inOvercast
7:06 AM37.4 °F35.6 °F93 %30.17 in5.0 miSSE (150°)3.5 mph0.02 inRainLight Rain
7:14 AM37.4 °F35.6 °F93 %30.17 in10.0 miCalm0.02 inRainLight Rain
7:56 AM37.0 °F36.0 °F96 %30.19 in10.0 miCalm0.03 inRainLight Rain
8:56 AM39.0 °F37.9 °F96 %30.21 in10.0 miCalm0.01 inOvercast
9:56 AM42.1 °F39.9 °F92 %30.23 in10.0 miCalmScattered Clouds
10:38 AM42.8 °F37.4 °F81 %30.23 in10.0 miCalm0.00 inOvercast
10:46 AM42.8 °F37.4 °F81 %30.23 in10.0 miCalm0.00 inOvercast
10:56 AM41.0 °F37.0 °F86 %30.23 in10.0 miCalm0.00 inRainLight Rain
11:56 AM43.0 °F37.0 °F80 %30.22 in10.0 miWNW (300°)3.5 mph0.00 inOvercast
12:12 PM44.6 °F37.4 °F76 %30.21 in10.0 miCalmOvercast
12:26 PM42.8 °F37.4 °F81 %30.21 in10.0 miCalmOvercast
12:56 PM43.0 °F37.0 °F80 %30.21 in10.0 miCalmMostly Cloudy
1:03 PM42.8 °F35.6 °F76 %30.20 in10.0 miVariable3.5 mphOvercast
1:15 PM42.8 °F37.4 °F81 %30.21 in10.0 miVariable6.9 mphOvercast
1:43 PM42.8 °F37.4 °F81 %30.20 in10.0 miSW (230°)3.5 mph0.01 inMostly Cloudy
1:56 PM43.0 °F37.9 °F82 %30.21 in10.0 miWSW (250°)4.6 mph0.01 inScattered Clouds
2:46 PM42.8 °F37.4 °F81 %30.22 in5.0 miSW (220°)3.5 mph0.00 inRainLight Rain
2:56 PM42.1 °F37.0 °F82 %30.22 in10.0 miVariable3.5 mph0.00 inOvercast
3:56 PM43.0 °F39.0 °F86 %30.22 in8.0 miVariable4.6 mph0.03 inRainLight Rain
4:03 PM42.8 °F37.4 °F81 %30.22 in10.0 miCalm0.00 inRainLight Rain
4:46 PM42.8 °F37.4 °F81 %30.23 in5.0 miNNW (330°)10.4 mph0.03 inRainLight Rain
4:56 PM41.0 °F37.0 °F86 %30.22 in8.0 miNorth (360°)5.8 mph21.9 mph0.04 inRainLight Rain
5:56 PM39.9 °F37.0 °F89 %30.23 in7.0 miCalm0.03 inRainLight Rain
6:16 PM39.2 °F37.4 °F93 %30.24 in4.0 miVariable3.5 mph0.02 inRainRain
6:56 PM41.0 °F37.0 °F86 %30.24 in10.0 miNNE (20°)6.9 mph0.07 inRainLight Rain
7:56 PM39.9 °F37.0 °F89 %30.24 in10.0 miEast (80°)4.6 mph0.00 inOvercast
9:56 PM37.9 °F36.0 °F93 %30.25 in10.0 miENE (70°)4.6 mphPartly Cloudy
10:56 PM37.0 °F36.0 °F96 %30.26 in10.0 miCalmMostly Cloudy
11:36 PM39.2 °F37.4 °F93 %30.25 in10.0 miENE (70°)3.5 mph0.02 inRainLight Rain
11:56 PM39.0 °F36.0 °F89 %30.26 in10.0 miNNE (20°)8.1 mph0.02 inRainLight Rain
Hourly data recorded from KCEC, located miles away from Crescent City, California







STORIES FROM OUR PARTNERS